Flag for Canada Weather past 2 weeks in Alert, Nunavut, Canada

14 °F

Partly sunny.

Feels Like: 14 °F
Forecast: 2 / 10 °F
Wind: 2 mph from Southwest

Location: Alert Airport

Current Time: Oct 8, 2015 at 12:43:39 PM

Latest Report: Oct 8, 2015 at 12:00 PM

Visibility: 15 mi

Pressure: 29.60 "Hg

Humidity: 79%

Dew point: 9 °F

Location of AlertLocation

Historic Weather in Alert — Graph


Alert temperature yesterday

Maximum temperature yesterday: 19 °F (at 3:00 AM)
Minimum temperature yesterday: 10 °F (at 9:00 AM)
Average temperature yesterday: 15 °F

Past Weeks' High & Low Weather Summary

High30 °F (Oct 2, 9:00 AM)100% (Sep 26, 3:00 PM)30.20 "Hg (Sep 26, 3:00 PM)
Low-6 °F (Sep 28, 2:00 AM)58% (Oct 4, 5:00 PM)29.17 "Hg (Oct 2, 8:00 AM)
Average15 °F81%29.68 "Hg
* Reported Sep 23 11:00 AM — Oct 8 11:00 AM, Alert, Weather by CustomWeather, © 2015

Note: Actual official high and low records may vary slightly from our data, if they occured in-between our weather recording intervals... More about our weather records


Alert weather history for previous 24 hours

Time TempWeatherWind HumidityBarometerVisibility
11:00 AM
Thu, Oct 8
12 °FPartly sunny.2 mph79%29.61 "Hg15 mi
10:00 AM10 °FBroken clouds.3 mph85%29.62 "Hg15 mi
9:00 AM10 °FPartly cloudy.No wind85%29.62 "Hg15 mi
8:00 AM10 °FPassing clouds.5 mph79%29.63 "Hg15 mi
7:00 AM9 °FPassing clouds.5 mph85%29.63 "Hg15 mi
6:00 AM7 °FPassing clouds.5 mph85%29.63 "Hg15 mi
5:00 AM7 °FPassing clouds.3 mph85%29.64 "Hg15 mi
4:00 AM10 °FPassing clouds.2 mph79%29.63 "Hg15 mi
3:00 AM10 °FPassing clouds.No wind79%29.64 "Hg15 mi
2:00 AM10 °FPassing clouds.3 mph79%29.63 "Hg15 mi
1:00 AM12 °FPassing clouds.9 mph79%29.63 "Hg15 mi
12:00 AM12 °FPassing clouds.16 mph79%29.62 "Hg15 mi
11:00 PM
Wed, Oct 7
12 °FPassing clouds.16 mph79%29.61 "Hg15 mi
10:00 PM14 °FPassing clouds.16 mph73%29.62 "Hg15 mi
9:00 PM16 °FPassing clouds.15 mph67%29.63 "Hg15 mi
8:00 PM16 °FPassing clouds.18 mph67%29.63 "Hg15 mi
7:00 PM16 °FPassing clouds.22 mph67%29.62 "Hg15 mi
6:00 PM16 °FPassing clouds.20 mph73%29.63 "Hg15 mi
5:00 PM16 °FPassing clouds.16 mph73%29.65 "Hg15 mi
4:00 PM18 °FScattered clouds.17 mph73%29.65 "Hg15 mi
3:00 PM16 °FPartly sunny.12 mph73%29.67 "Hg15 mi
2:00 PM14 °FPartly sunny.15 mph79%29.69 "Hg15 mi
1:00 PM12 °FPartly sunny.17 mph85%29.72 "Hg15 mi
12:00 PM12 °FPartly sunny.5 mph85%29.77 "Hg15 mi
Weather by CustomWeather, © 2015

See weather overviewHow to use our weather pages